Location: Newark
(30.1000°N, 109.4667°E)
Time: 23:06:24
(UTC+00:00)

Vanguard 1 Rocket - Visible Passes

Search period start: 18 February 2020 00:00
Search period end: 28 February 2020 00:00
Orbit: 650 x 4226 km, 34.3° (Epoch: 18 February)

Date Brightness Start Highest point End Pass type
(mag) Time Alt. Az. Time Alt. Az. Time Alt. Az.
18 Feb 7.1 21:43:02 44° NW 21:43:55 52° N 21:48:13 10° ENE visible
19 Feb 8.9 20:35:50 23° ENE 20:35:50 23° ENE 20:37:25 10° ENE visible
20 Feb 7.1 21:45:54 38° NW 21:47:12 51° N 21:51:29 10° ENE visible
21 Feb 8.7 20:38:41 26° ENE 20:38:41 26° ENE 20:40:38 10° ENE visible
22 Feb 11.3 14:21:23 10° S 14:22:13 11° S 14:22:13 11° S visible
22 Feb 7.1 21:48:44 34° NW 21:50:30 55° N 21:54:47 10° E visible
23 Feb 8.4 20:41:31 31° ENE 20:41:31 31° ENE 20:43:55 10° ENE visible
24 Feb 11.2 14:20:34 10° SSW 14:25:11 16° S 14:25:11 16° S visible
24 Feb 6.9 21:51:35 31° WNW 21:53:46 64° N 21:58:07 10° E visible
25 Feb 11.1 13:09:55 10° S 13:18:06 15° SSE 13:18:06 15° SSE visible
25 Feb 11.4 15:34:17 10° SW 15:35:25 12° SW 15:35:25 12° SW visible
25 Feb 8.1 20:44:22 38° ENE 20:44:22 38° ENE 20:47:14 10° E visible
26 Feb 11.0 14:20:47 10° SSW 14:28:24 22° S 14:28:24 22° S visible
26 Feb 6.7 21:54:27 28° WNW 21:57:02 80° NNE 22:01:22 10° ESE visible
27 Feb 10.8 13:08:33 10° S 13:21:26 22° SSE 13:21:26 22° SSE visible
27 Feb 11.3 15:35:51 10° SW 15:38:45 16° SW 15:38:45 16° SW visible
27 Feb 7.8 20:47:15 47° ENE 20:47:15 47° ENE 20:50:34 10° E visible
